Tracking 27172 objects as of 2-Apr-2023
HD Live streaming from Space Station
objects crossing your sky now

COSMOS 1823 DEB

Track COSMOS 1823 DEB now!
10-day predictions


NORAD ID: 18755
Int'l Code: 1987-020AG
Perigee: 1,476.9 km
Apogee: 1,531.5 km
Inclination: 73.6 °
Period: 115.9 minutes
Semi major axis: 7875 km
RCS: 0.0433 m2 (small)
Launch date: February 20, 1987
Source: Commonwealth of Independent States (former USSR) (CIS)
Launch site: PLESETSK MISSILE AND SPACE COMPLEX (PKMTR)

Note: This is SATELLITE DEBRIS
Your satellite tracking list
Your tracking list is empty




NASA's NSSDC Master Catalog

Two Line Element Set (TLE):
1 18755U 87020AG  23091.31224622  .00000045  00000-0  44788-3 0  9993
2 18755  73.6379 205.6884 0034669  75.0303 317.2137 12.42254308599358
Source of the keplerian elements: AFSPC